Weather History for Puerto Barrios, Guatemala

Change the Weather History Date:

Wednesday, November 21, 2012

  Actual Average Record
Temperature  
Mean Temperature 74 °F -  
Max Temperature 82 °F 80 °F 86 °F (1997)
Min Temperature 66 °F 68 °F 64 °F (2006)
Cooling Degree Days 9    
Growing Degree Days 24 (Base 50)    
Moisture  
Dew Point 68 °F    
Average Humidity 82    
Maximum Humidity 100    
Minimum Humidity 57    
Precipitation  
Precipitation 0.00 in - - ()
Sea Level Pressure  
Sea Level Pressure 30.04 in    
Wind  
Wind Speed 2 mph ()    
Max Wind Speed 14 mph    
Max Gust Speed -    
Visibility 5.8 miles    
Events      
Averages and records for this station are not official NWS values.
T = Trace of Precipitation, MM = Missing Value Source: Averaged Metar Reports

Daily Weather History Graph

Daily Weather History Graph

Search for Another Location

Airport:

Trip Planner

Search our weather history database for the weather conditions in past years. The results will help you decide how hot, cold, wet, or windy it might be!

Date:

Astronomy

Nov. 21, 2012 Rise Set
Actual Time 6:00 AM CST 5:20 PM CST
Civil Twilight 5:37 AM CST 5:43 PM CST
Nautical Twilight 5:11 AM CST 6:09 PM CST
Astronomical Twilight 4:44 AM CST 6:35 PM CST
Moon 12:46 PM CST (11/21) 12:15 AM CST (11/21)
Length of Visible Light 12h 05m
Length of Day
11h 20m
First Quarter, 62% of the Moon is Illuminated
Nov 21
First Quarter
Nov 28
Full
Dec 6
Last Quarter
Dec 13
New
Dec 19
First Quarter

Hourly Weather History & Observations

Time (CST) Temp. Heat Index Dew Point Humidity Pressure Visibility Wind Dir Wind Speed Gust Speed Precip Events Conditions
12:00 AM 69.8 °F - 68.0 °F 94% 30.04 in - Calm Calm - N/A   Clear
1:00 AM 69.8 °F - 68.0 °F 94% 30.04 in - Calm Calm - N/A   Clear
2:00 AM 68.0 °F - 66.2 °F 94% 30.01 in - Calm Calm - N/A   Clear
3:00 AM 68.0 °F - 68.0 °F 100% 30.01 in - Calm Calm - N/A   Clear
4:00 AM 68.0 °F - 66.2 °F 94% 30.01 in - Calm Calm - N/A   Clear
5:00 AM 68.0 °F - 66.2 °F 94% 30.01 in 6.2 mi Calm Calm - N/A   Mostly Cloudy
6:00 AM 68 °F - 66 °F 93% 30.04 in 25 mi East 4.6 mph - -   Partly Cloudy
6:00 AM 68.0 °F - 66.2 °F 94% 30.04 in 6.2 mi East 4.6 mph - N/A   Scattered Clouds
7:00 AM 69.8 °F - 66.2 °F 88% 30.04 in 6.2 mi Calm Calm - N/A   Mostly Cloudy
8:00 AM 71.6 °F - 64.4 °F 78% 30.06 in 6.2 mi West 4.6 mph - N/A   Mostly Cloudy
9:00 AM 78.8 °F - 66.2 °F 65% 30.09 in 6.2 mi West 4.6 mph - N/A   Mostly Cloudy
10:00 AM 78.8 °F - 66.2 °F 65% 30.09 in 5.0 mi West 9.2 mph - N/A   Mostly Cloudy
11:00 AM 80.6 °F 82.7 °F 66.2 °F 61% 30.06 in 5.0 mi West 6.9 mph - N/A   Mostly Cloudy
12:00 PM 81 °F - 68 °F 57% 30.06 in 5 mi West 6.9 mph - -   Haze
12:00 PM 80.6 °F 83.2 °F 68.0 °F 65% 30.06 in 5.0 mi West 6.9 mph - N/A   Mostly Cloudy
1:00 PM 82.4 °F 85.4 °F 68.0 °F 62% 30.04 in 5.0 mi West 9.2 mph - N/A   Mostly Cloudy
2:00 PM 80.6 °F 83.2 °F 68.0 °F 65% 30.01 in 5.0 mi West 4.6 mph - N/A   Mostly Cloudy
3:00 PM 78.8 °F - 68.0 °F 69% 30.01 in 6.2 mi WNW 4.6 mph - N/A   Mostly Cloudy
4:00 PM 78.8 °F - 69.8 °F 74% 30.01 in 6.2 mi North 4.6 mph - N/A   Overcast
5:00 PM 77.0 °F - 69.8 °F 78% 30.01 in 6.2 mi Calm Calm - N/A   Mostly Cloudy
6:00 PM 75.2 °F - 69.8 °F 83% 30.04 in 6.2 mi North 13.8 mph - N/A   Mostly Cloudy
7:00 PM 71.6 °F - 69.8 °F 94% 30.06 in 5.0 mi West 4.6 mph - N/A   Light Drizzle
8:00 PM 71.6 °F - 69.8 °F 94% 30.06 in 6.2 mi Calm Calm - N/A   Overcast
9:00 PM 69.8 °F - 69.8 °F 100% 30.09 in 6.2 mi Calm Calm - N/A   Overcast
10:00 PM 71.6 °F - 69.8 °F 94% 30.09 in 6.2 mi Calm Calm - N/A   Mostly Cloudy
11:00 PM 71.6 °F - 69.8 °F 94% 30.06 in 6.2 mi Calm Calm - N/A   Mostly Cloudy